NORTHEAST SUFFOLK  -  Dense Fog Advisory Dense Fog Advisory        NORTHERN NASSAU  -  Dense Fog Advisory Dense Fog Advisory        NORTHERN QUEENS  -  Dense Fog Advisory Dense Fog Advisory     Dense Fog Advisory Dense Fog Advisory        NORTHWEST SUFFOLK  -  Dense Fog Advisory Dense Fog Advisory        SOUTHEAST SUFFOLK  -  Dense Fog Advisory Dense Fog Advisory        SOUTHERN NASSAU  -  Dense Fog Advisory Dense Fog Advisory        SOUTHERN QUEENS  -  Dense Fog Advisory Dense Fog Advisory     Dense Fog Advisory Dense Fog Advisory        SOUTHWEST SUFFOLK  -  Dense Fog Advisory Dense Fog Advisory      

Active alerts

Northern Queens
  Details for Northern Queens Dense Fog Advisory  +1 additional alert
Southern Queens
  Details for Southern Queens Dense Fog Advisory  +1 additional alert
Northern Nassau
  Details for Northern Nassau Dense Fog Advisory
Southern Nassau
  Details for Southern Nassau Dense Fog Advisory
Northwest Suffolk
  Details for Northwest Suffolk Dense Fog Advisory
Southwest Suffolk
  Details for Southwest Suffolk Dense Fog Advisory
Northeast Suffolk
  Details for Northeast Suffolk Dense Fog Advisory
Southeast Suffolk
  Details for Southeast Suffolk Dense Fog Advisory


WXM80 ListenWXM80 Stop

You find our weather info also at:

UK Metoffice

WeatherCloud

Weather Underground

Northeastern Weather Network

AWEKAS

Citizen Weather Observer Program (CWOP)

HAMweather, WeatherForYou, PWS Weather


Weather Underground History page Text

Daily Summary for January 25, 2018 Units:  Metric    English   Both
« Previous Day
Next Day »
Daily Weekly Monthly Yearly Custom
  High: Low: Average:
Temperature: -17.8 °C -4.7 °C -1.8 °C
Dew Point: -17.8 °C -14.5 °C -11.2 °C
Humidity: Humidity % 32 % 50 %
Wind Speed: 0 km/h 0.2 km/h 7.4 km/h
Wind Gust: 0 km/h - -
Wind:- - West
Pressure: 0 hPa 1012.4 hPa -
Precipitation: 0 mm    
Historical Graphs
 
 
Tabular Data for January 25, 2018
Time Temperature Dew Point Pressure Wind Wind Speed Wind Gust Humidity Rainfall Rate (Hourly)
-17.8 °C -17.8 °C 0 hPa Calm     Humidity % 0 mm
00:04 -2.2 °C -7.2 °C 1012.4 hPa NW 5.8 km/h 12.9 km/h 69 % 0 mm
00:09 -2.3 °C -7.2 °C 1012.8 hPa North 8.4 km/h 18.5 km/h 69 % 0 mm
00:14 -2.3 °C -7.3 °C 1012.4 hPa NW 6.9 km/h 16.7 km/h 69 % 0 mm
00:19 -2.4 °C -7.3 °C 1012.8 hPa NNW 5.6 km/h 9.3 km/h 69 % 0 mm
00:24 -2.4 °C -7.2 °C 1012.4 hPa North 11.1 km/h 14.5 km/h 70 % 0 mm
00:29 -2.6 °C -7.3 °C 1012.4 hPa NNW 14.3 km/h 19.3 km/h 70 % 0 mm
00:35 -2.6 °C -7.3 °C 1012.4 hPa NNW 10.3 km/h 16.7 km/h 70 % 0 mm
00:40 -2.7 °C -7.6 °C 1012.4 hPa North 7.2 km/h 16.7 km/h 69 % 0 mm
00:45 -2.7 °C -7.6 °C 1012.4 hPa NNW 10.1 km/h 22.2 km/h 69 % 0 mm
00:50 -2.8 °C -7.7 °C 1012.4 hPa NW 10.1 km/h 22.2 km/h 69 % 0 mm
00:55 -2.9 °C -7.8 °C 1012.4 hPa NNW 8.5 km/h 16.7 km/h 69 % 0 mm
01:00 -3 °C -7.9 °C 1012.4 hPa NNE 10.9 km/h 16.7 km/h 69 % 0 mm
01:05 -3.1 °C -7.9 °C 1012.4 hPa NW 4.3 km/h 13 km/h 69 % 0 mm
01:10 -3.2 °C -8.1 °C 1012.4 hPa WNW 5.6 km/h 18.5 km/h 69 % 0 mm
01:15 -3.2 °C -8.1 °C 1012.4 hPa North 10.1 km/h 24.1 km/h 69 % 0 mm
01:20 -3.3 °C -8.2 °C 1012.8 hPa NNW 7.1 km/h 11.3 km/h 69 % 0 mm
01:25 -3.4 °C -8.4 °C 1012.8 hPa NNW 12.1 km/h 22.2 km/h 68 % 0 mm
01:30 -3.4 °C -8.5 °C 1012.8 hPa North 11.7 km/h 16.7 km/h 68 % 0 mm
01:35 -3.4 °C -8.3 °C 1012.8 hPa NNW 12.1 km/h 18.5 km/h 69 % 0 mm
01:40 -3.5 °C -8.4 °C 1013.1 hPa NW 10.5 km/h 24.1 km/h 69 % 0 mm
01:45 -3.6 °C -8.6 °C 1013.1 hPa NNW 7.9 km/h 13 km/h 68 % 0 mm
01:50 -3.7 °C -9.1 °C 1013.1 hPa NW 7.2 km/h 14.8 km/h 66 % 0 mm
01:55 -3.7 °C -9.3 °C 1013.1 hPa NNW 7.6 km/h 20.4 km/h 65 % 0 mm
02:00 -3.8 °C -10.2 °C 1013.4 hPa North 10.8 km/h 14.5 km/h 61 % 0 mm
02:05 -3.8 °C -10.3 °C 1013.4 hPa NNW 5.5 km/h 14.8 km/h 61 % 0 mm
02:10 -3.9 °C -10.8 °C 1013.4 hPa NE 5.3 km/h 14.8 km/h 59 % 0 mm
02:15 -4 °C -10.6 °C 1013.4 hPa NE 8.7 km/h 18.5 km/h 60 % 0 mm
02:20 -4 °C -10.6 °C 1013.8 hPa NNE 7.7 km/h 9.7 km/h 60 % 0 mm
02:25 -4.1 °C -10.7 °C 1013.8 hPa NNE 3.4 km/h 11.1 km/h 60 % 0 mm
02:31 -4.1 °C -10.3 °C 1013.8 hPa WNW 7.6 km/h 7.6 km/h 62 % 0 mm
02:36 -4.2 °C -10.6 °C 1013.8 hPa NNW 8 km/h 12.9 km/h 61 % 0 mm
02:41 -4.2 °C -10.2 °C 1014.1 hPa NNW 4.8 km/h 9.7 km/h 63 % 0 mm
02:46 -4.2 °C -10.2 °C 1014.1 hPa NW 4.8 km/h 16.1 km/h 63 % 0 mm
02:51 -4.2 °C -9.8 °C 1014.1 hPa NW 6.4 km/h 14.5 km/h 65 % 0 mm
02:56 -4.2 °C -9.8 °C 1014.1 hPa NW 8 km/h 17.7 km/h 65 % 0 mm
03:01 -4.2 °C -9.6 °C 1014.1 hPa NW 2.7 km/h 9.3 km/h 66 % 0 mm
03:06 -4.2 °C -9.4 °C 1014.1 hPa NW 8.7 km/h 18.5 km/h 67 % 0 mm
03:11 -4.3 °C -9.7 °C 1014.1 hPa NW 3.7 km/h 11.1 km/h 66 % 0 mm
03:16 -4.3 °C -9.7 °C 1014.4 hPa NNW 5.8 km/h 13 km/h 66 % 0 mm
03:21 -4.3 °C -9.7 °C 1014.4 hPa NW 9.8 km/h 16.7 km/h 66 % 0 mm
03:26 -4.3 °C -9.6 °C 1014.4 hPa NW 8.7 km/h 14.8 km/h 67 % 0 mm
03:31 -4.3 °C -9.3 °C 1014.4 hPa WNW 9.2 km/h 13 km/h 68 % 0 mm
03:36 -4.3 °C -9.6 °C 1014.4 hPa NW 4.3 km/h 9.3 km/h 67 % 0 mm
03:41 -4.4 °C -9.8 °C 1014.4 hPa NW 8.4 km/h 20.4 km/h 66 % 0 mm
03:46 -4.4 °C -9.7 °C 1014.8 hPa West 5.3 km/h 12.9 km/h 67 % 0 mm
03:51 -4.4 °C -9.4 °C 1014.8 hPa NW 8.9 km/h 14.8 km/h 68 % 0 mm
03:56 -4.5 °C -9.5 °C 1014.8 hPa West 6.6 km/h 12.9 km/h 68 % 0 mm
04:01 -4.5 °C -9.3 °C 1015.1 hPa NNW 4.7 km/h 9.3 km/h 69 % 0 mm
04:06 -4.6 °C -9.4 °C 1014.8 hPa WNW 5.5 km/h 7.4 km/h 69 % 0 mm
04:11 -4.6 °C -9.4 °C 1014.8 hPa WNW 7.6 km/h 18.5 km/h 69 % 0 mm
04:16 -4.6 °C -9.4 °C 1014.8 hPa West 7.9 km/h 18.5 km/h 69 % 0 mm
04:21 -4.5 °C -9.3 °C 1015.1 hPa NW 9.3 km/h 18.5 km/h 69 % 0 mm
04:26 -4.6 °C -9.6 °C 1015.5 hPa WNW 4.3 km/h 12.9 km/h 68 % 0 mm
04:31 -4.6 °C -9.6 °C 1015.5 hPa NNW 5.6 km/h 12.9 km/h 68 % 0 mm
04:36 -4.6 °C -9.6 °C 1015.8 hPa WNW 2.6 km/h 16.7 km/h 68 % 0 mm
04:41 -4.6 °C -9.6 °C 1015.8 hPa WNW 6.6 km/h 16.7 km/h 68 % 0 mm
04:46 -4.6 °C -9.8 °C 1015.8 hPa NW 8.5 km/h 18.5 km/h 67 % 0 mm
04:51 -4.6 °C -10 °C 1015.8 hPa WNW 11.9 km/h 22.2 km/h 66 % 0 mm
04:57 -4.6 °C -10 °C 1015.8 hPa NW 7.4 km/h 13 km/h 66 % 0 mm
05:02 -4.7 °C -10.1 °C 1015.8 hPa WNW 9.3 km/h 14.5 km/h 66 % 0 mm
05:07 -4.7 °C -10.1 °C 1015.8 hPa WNW 10.1 km/h 16.7 km/h 66 % 0 mm
05:12 -4.7 °C -10.1 °C 1015.8 hPa West 8.4 km/h 16.7 km/h 66 % 0 mm
05:17 -4.7 °C -10.1 °C 1016.1 hPa West 8.9 km/h 18.5 km/h 66 % 0 mm
05:22 -4.7 °C -10.3 °C 1016.1 hPa West 6.8 km/h 11.1 km/h 65 % 0 mm
05:27 -4.7 °C -10.3 °C 1016.5 hPa WSW 12.1 km/h 16.7 km/h 65 % 0 mm
05:32 -4.7 °C -10.3 °C 1016.1 hPa West 9.7 km/h 16.7 km/h 65 % 0 mm
05:37 -4.7 °C -10.3 °C 1016.1 hPa WNW 6.8 km/h 13 km/h 65 % 0 mm
05:42 -4.7 °C -10.1 °C 1016.1 hPa NW 9 km/h 14.8 km/h 66 % 0 mm
05:47 -4.7 °C -10.1 °C 1016.1 hPa WNW 8.7 km/h 18.5 km/h 66 % 0 mm
05:52 -4.7 °C -10.1 °C 1016.5 hPa WNW 11.1 km/h 18.5 km/h 66 % 0 mm
05:57 -4.7 °C -9.9 °C 1016.5 hPa WNW 3.7 km/h 13 km/h 67 % 0 mm
06:02 -4.6 °C -9.8 °C 1016.5 hPa NW 6.9 km/h 18.5 km/h 67 % 0 mm
06:07 -4.6 °C -9.8 °C 1016.8 hPa WNW 6.6 km/h 13 km/h 67 % 0 mm
06:12 -4.6 °C -9.6 °C 1016.8 hPa WNW 8.4 km/h 16.1 km/h 68 % 0 mm
06:17 -4.6 °C -9.6 °C 1016.8 hPa WNW 6.6 km/h 16.7 km/h 68 % 0 mm
06:22 -4.6 °C -9.6 °C 1016.8 hPa WNW 9.8 km/h 18.5 km/h 68 % 0 mm
06:27 -4.6 °C -9.4 °C 1016.8 hPa NW 6.4 km/h 11.1 km/h 69 % 0 mm
06:32 -4.5 °C -9.5 °C 1017.2 hPa West 6.4 km/h 11.1 km/h 68 % 0 mm
06:37 -4.5 °C -9.5 °C 1017.5 hPa West 7.2 km/h 11.3 km/h 68 % 0 mm
06:42 -4.5 °C -9.5 °C 1017.5 hPa WNW 6.3 km/h 16.1 km/h 68 % 0 mm
06:47 -4.5 °C -9.5 °C 1017.5 hPa WNW 8.9 km/h 12.9 km/h 68 % 0 mm
06:52 -4.4 °C -9.4 °C 1017.5 hPa WNW 6.4 km/h 11.1 km/h 68 % 0 mm
06:57 -4.4 °C -9.4 °C 1017.5 hPa NW 1.9 km/h 14.8 km/h 68 % 0 mm
07:03 -4.4 °C -9.4 °C 1017.5 hPa NW 9 km/h 11.1 km/h 68 % 0 mm
07:08 -4.5 °C -9.5 °C 1017.5 hPa NW 5.6 km/h 11.1 km/h 68 % 0 mm
07:13 -4.5 °C -9.3 °C 1017.5 hPa NW 1.6 km/h 7.4 km/h 69 % 0 mm
07:18 -4.5 °C -9.3 °C 1017.8 hPa NNW 8.2 km/h 14.8 km/h 69 % 0 mm
07:23 -4.5 °C -9.5 °C 1017.8 hPa WNW 9.7 km/h 16.7 km/h 68 % 0 mm
07:28 -4.4 °C -9.3 °C 1017.8 hPa NW 7.4 km/h 13 km/h 69 % 0 mm
07:33 -4.4 °C -9.3 °C 1018.2 hPa NNW 10 km/h 13 km/h 69 % 0 mm
07:38 -4.3 °C -9.2 °C 1018.2 hPa NNW 6 km/h 16.7 km/h 69 % 0 mm
07:43 -4.3 °C -9.6 °C 1018.2 hPa North 3.5 km/h 8 km/h 67 % 0 mm
07:48 -4.3 °C -9.1 °C 1018.2 hPa NW 7.7 km/h 16.7 km/h 69 % 0 mm
07:53 -4.2 °C -9.3 °C 1018.2 hPa NNW 6.9 km/h 16.1 km/h 68 % 0 mm
07:58 -4.2 °C -9.2 °C 1018.2 hPa WNW 7.7 km/h 19.3 km/h 68 % 0 mm
08:03 -4.1 °C -9.1 °C 1018.2 hPa NW 8.4 km/h 13 km/h 68 % 0 mm
08:08 -4 °C -9.2 °C 1018.2 hPa NW 4.7 km/h 11.1 km/h 67 % 0 mm
08:13 -3.9 °C -9.3 °C 1018.5 hPa WSW 6.1 km/h 11.3 km/h 66 % 0 mm
08:18 -3.8 °C -9.2 °C 1018.5 hPa NW 9.3 km/h 14.8 km/h 66 % 0 mm
08:23 -3.7 °C -9.1 °C 1018.5 hPa NW 9 km/h 14.8 km/h 66 % 0 mm
08:28 -3.6 °C -9 °C 1018.5 hPa NW 12.7 km/h 18.5 km/h 66 % 0 mm
08:33 -3.4 °C -9.3 °C 1018.5 hPa NW 8.2 km/h 14.8 km/h 64 % 0 mm
08:38 -3.3 °C -9 °C 1018.5 hPa NNW 7.9 km/h 14.8 km/h 65 % 0 mm
08:43 -3.2 °C -9.1 °C 1018.8 hPa NNW 9.7 km/h 20.4 km/h 64 % 0 mm
08:48 -3.1 °C -9.2 °C 1018.8 hPa NW 9.5 km/h 18.5 km/h 63 % 0 mm
08:53 -2.9 °C -8.8 °C 1018.8 hPa WNW 11.1 km/h 16.1 km/h 64 % 0 mm
08:58 -2.7 °C -9 °C 1018.8 hPa NNW 11.3 km/h 18.5 km/h 62 % 0 mm
09:03 -2.4 °C -8.6 °C 1018.8 hPa WNW 3.4 km/h 7.4 km/h 63 % 0 mm
09:09 -2.3 °C -8.8 °C 1018.8 hPa WNW 4.5 km/h 14.8 km/h 61 % 0 mm
09:14 -2.3 °C -9 °C 1018.8 hPa NW 9.3 km/h 18.5 km/h 60 % 0 mm
09:19 -2.2 °C -8.9 °C 1019.2 hPa NW 7.2 km/h 13 km/h 60 % 0 mm
09:24 -2.1 °C -8.6 °C 1019.2 hPa NNW 9.7 km/h 14.8 km/h 61 % 0 mm
09:29 -1.9 °C -8.8 °C 1019.2 hPa North 7.1 km/h 16.7 km/h 59 % 0 mm
09:34 -1.7 °C -8.9 °C 1019.2 hPa NNW 7.1 km/h 18.5 km/h 58 % 0 mm
09:39 -1.6 °C -8.8 °C 1019.5 hPa North 7.2 km/h 18.5 km/h 58 % 0 mm
09:44 -1.4 °C -8.6 °C 1019.5 hPa NNW 8 km/h 14.8 km/h 58 % 0 mm
09:49 -1.3 °C -8.8 °C 1019.5 hPa NNW 8.4 km/h 16.7 km/h 57 % 0 mm
09:54 -1.2 °C -8.8 °C 1019.5 hPa NNW 4.7 km/h 11.1 km/h 56 % 0 mm
09:59 -1.1 °C -8.7 °C 1019.5 hPa WNW 7.6 km/h 9.7 km/h 56 % 0 mm
10:04 -0.8 °C -8.5 °C 1019.9 hPa WSW 6.1 km/h 16.7 km/h 56 % 0 mm
10:09 -0.6 °C -8.3 °C 1019.9 hPa West 8.4 km/h 19.3 km/h 56 % 0 mm
10:14 -0.4 °C -8.6 °C 1019.9 hPa WNW 9.7 km/h 14.8 km/h 54 % 0 mm
10:19 -0.3 °C -8.8 °C 1019.9 hPa NNW 6 km/h 8 km/h 53 % 0 mm
10:24 -0.3 °C -9.2 °C 1019.9 hPa WNW 9.2 km/h 17.7 km/h 51 % 0 mm
10:29 -0.3 °C -8.9 °C 1020.2 hPa NW 8.7 km/h 13 km/h 52 % 0 mm
10:34 -0.3 °C -9.2 °C 1019.9 hPa NNW 7.7 km/h 11.1 km/h 51 % 0 mm
10:39 -0.1 °C -9.1 °C 1019.9 hPa NNW 5.5 km/h 16.7 km/h 51 % 0 mm
10:44 0 °C -8.9 °C 1019.9 hPa NW 10.9 km/h 13 km/h 51 % 0 mm
10:49 0.1 °C -9.2 °C 1019.9 hPa NW 8.5 km/h 13 km/h 50 % 0 mm
10:54 0 °C -9.4 °C 1019.9 hPa NNW 8.9 km/h 13 km/h 49 % 0 mm
10:59 -0.1 °C -10.1 °C 1019.9 hPa North 10.8 km/h 22.2 km/h 47 % 0 mm
11:04 -0.1 °C -9.6 °C 1019.9 hPa WNW 8.5 km/h 11.3 km/h 49 % 0 mm
11:10 0 °C -9.4 °C 1019.9 hPa North 6.3 km/h 16.7 km/h 49 % 0 mm
11:15 0.1 °C -10.2 °C 1019.9 hPa NW 8.4 km/h 24.1 km/h 46 % 0 mm
11:20 0.1 °C -10.8 °C 1019.9 hPa WNW 8 km/h 20.4 km/h 44 % 0 mm
11:25 0.1 °C -10.8 °C 1019.9 hPa NNW 12.7 km/h 19.3 km/h 44 % 0 mm
11:30 0 °C -10.8 °C 1019.9 hPa NNW 7.2 km/h 20.9 km/h 44 % 0 mm
11:35 -0.1 °C -11.2 °C 1019.9 hPa NW 8.2 km/h 18.5 km/h 43 % 0 mm
11:40 -0.1 °C -10.9 °C 1019.9 hPa NNE 7.6 km/h 13 km/h 44 % 0 mm
11:45 -0.1 °C -11.2 °C 1019.9 hPa NNW 10.5 km/h 18.5 km/h 43 % 0 mm
11:50 -0.2 °C -11.6 °C 1019.9 hPa North 8.9 km/h 16.7 km/h 42 % 0 mm
11:55 -0.2 °C -11.3 °C 1019.9 hPa North 10 km/h 16.7 km/h 43 % 0 mm
12:00 -0.2 °C -11.6 °C 1019.9 hPa North 11.1 km/h 18.5 km/h 42 % 0 mm
12:05 -0.2 °C -11 °C 1019.5 hPa North 7.2 km/h 18.5 km/h 44 % 0 mm
12:10 -0.2 °C -11.3 °C 1019.9 hPa North 10.6 km/h 18.5 km/h 43 % 0 mm
12:15 -0.1 °C -11.4 °C 1019.9 hPa NW 8.9 km/h 19.3 km/h 42 % 0 mm
12:20 0.1 °C -11.3 °C 1019.9 hPa NW 6.9 km/h 11.1 km/h 42 % 0 mm
12:25 0.2 °C -11.2 °C 1019.9 hPa NNW 9.2 km/h 18.5 km/h 42 % 0 mm
12:30 0.3 °C -12.1 °C 1019.9 hPa North 9.3 km/h 18.5 km/h 39 % 0 mm
12:35 0.4 °C -11.9 °C 1019.9 hPa North 9.8 km/h 18.5 km/h 39 % 0 mm
12:40 0.4 °C -12.3 °C 1019.9 hPa NNW 8.7 km/h 13 km/h 38 % 0 mm
12:45 0.4 °C -12.3 °C 1019.9 hPa North 8.4 km/h 18.5 km/h 38 % 0 mm
12:50 0.6 °C -11.5 °C 1019.9 hPa NNW 7.9 km/h 11.1 km/h 40 % 0 mm
12:55 0.7 °C -12.1 °C 1019.9 hPa NW 6.1 km/h 16.7 km/h 38 % 0 mm
13:00 0.8 °C -11.9 °C 1019.9 hPa NNW 11.7 km/h 18.5 km/h 38 % 0 mm
13:05 0.8 °C -12.6 °C 1019.9 hPa NW 8.7 km/h 14.8 km/h 36 % 0 mm
13:10 0.9 °C -12.2 °C 1019.5 hPa NNW 9.7 km/h 22.5 km/h 37 % 0 mm
13:15 1 °C -11.8 °C 1019.5 hPa NNW 9.7 km/h 20.9 km/h 38 % 0 mm
13:20 1.1 °C -12.1 °C 1019.5 hPa NNW 11.3 km/h 19.3 km/h 37 % 0 mm
13:25 1.1 °C -12.7 °C 1019.5 hPa NNW 9.7 km/h 25.7 km/h 35 % 0 mm
13:31 1.2 °C -12.3 °C 1019.5 hPa NW 8 km/h 22.5 km/h 36 % 0 mm
13:36 1.2 °C -12.3 °C 1019.9 hPa NW 11.3 km/h 19.3 km/h 36 % 0 mm
13:41 1.2 °C -12.3 °C 1019.9 hPa North 9.7 km/h 18.5 km/h 36 % 0 mm
13:46 1.3 °C -12.2 °C 1020.2 hPa NNW 9.7 km/h 19.3 km/h 36 % 0 mm
13:51 1.3 °C -12.5 °C 1020.2 hPa NW 4.8 km/h 12.9 km/h 35 % 0 mm
13:56 1.4 °C -12.8 °C 1020.2 hPa NW 8 km/h 19.3 km/h 34 % 0 mm
14:01 1.4 °C -12.4 °C 1020.2 hPa NW 9.5 km/h 18.5 km/h 35 % 0 mm
14:06 1.5 °C -12.3 °C 1020.5 hPa NW 9 km/h 18.5 km/h 35 % 0 mm
14:11 1.5 °C -12.3 °C 1020.5 hPa NNW 5.6 km/h 18.5 km/h 35 % 0 mm
14:16 1.5 °C -13.1 °C 1020.5 hPa NNE 10.3 km/h 20.9 km/h 33 % 0 mm
14:21 1.4 °C -12.4 °C 1020.5 hPa WNW 8 km/h 13 km/h 35 % 0 mm
14:26 1.4 °C -12.4 °C 1020.5 hPa NNW 8 km/h 18.5 km/h 35 % 0 mm
14:31 1.4 °C -12.8 °C 1020.5 hPa NNW 8.4 km/h 18.5 km/h 34 % 0 mm
14:36 1.3 °C -12.1 °C 1020.5 hPa NNW 4.3 km/h 7.4 km/h 36 % 0 mm
14:41 1.3 °C -13.3 °C 1020.5 hPa WNW 6.8 km/h 11.1 km/h 33 % 0 mm
14:46 1.2 °C -13.3 °C 1020.5 hPa NW 8.7 km/h 11.3 km/h 33 % 0 mm
14:51 1.2 °C -13 °C 1020.9 hPa West 4.7 km/h 13 km/h 34 % 0 mm
14:56 1.1 °C -13.8 °C 1020.9 hPa WNW 4.7 km/h 9.3 km/h 32 % 0 mm
15:01 1 °C -12.8 °C 1020.9 hPa NW 6.8 km/h 13 km/h 35 % 0 mm
15:06 0.9 °C -13.2 °C 1020.9 hPa NW 4.7 km/h 12.9 km/h 34 % 0 mm
15:11 0.8 °C -12.9 °C 1020.9 hPa NNW 8.5 km/h 17.7 km/h 35 % 0 mm
15:16 0.8 °C -13.7 °C 1020.9 hPa NNW 9 km/h 14.8 km/h 33 % 0 mm
15:21 0.8 °C -13 °C 1020.9 hPa NW 7.6 km/h 11.1 km/h 35 % 0 mm
15:26 0.8 °C -13.7 °C 1020.9 hPa NW 10.3 km/h 14.8 km/h 33 % 0 mm
15:31 0.8 °C -13 °C 1020.9 hPa NW 7.7 km/h 11.1 km/h 35 % 0 mm
15:36 0.8 °C -13 °C 1020.9 hPa NNW 7.6 km/h 14.5 km/h 35 % 0 mm
15:41 0.7 °C -12.3 °C 1020.9 hPa NNW 8.2 km/h 16.7 km/h 37 % 0 mm
15:46 0.7 °C -12.7 °C 1020.9 hPa NNW 7.2 km/h 16.7 km/h 36 % 0 mm
15:52 0.7 °C -12.7 °C 1021.2 hPa North 10.5 km/h 16.7 km/h 36 % 0 mm
15:57 0.6 °C -13.5 °C 1021.2 hPa North 6.1 km/h 18.5 km/h 34 % 0 mm
16:02 0.6 °C -13.1 °C 1021.2 hPa NNW 7.6 km/h 14.8 km/h 35 % 0 mm
16:07 0.6 °C -13.2 °C 1021.6 hPa WNW 11.6 km/h 18.5 km/h 35 % 0 mm
16:12 0.5 °C -13.9 °C 1021.6 hPa NW 7.1 km/h 14.8 km/h 33 % 0 mm
16:17 0.5 °C -13.2 °C 1021.6 hPa North 9.7 km/h 18.5 km/h 35 % 0 mm
16:22 0.4 °C -13.3 °C 1021.6 hPa NNW 6 km/h 11.3 km/h 35 % 0 mm
16:27 0.4 °C -12.9 °C 1021.6 hPa WNW 6.6 km/h 14.8 km/h 36 % 0 mm
16:32 0.4 °C -13.3 °C 1021.9 hPa NW 7.7 km/h 13 km/h 35 % 0 mm
16:37 0.4 °C -13.3 °C 1021.9 hPa NNW 5.6 km/h 9.7 km/h 35 % 0 mm
16:42 0.3 °C -12.3 °C 1021.9 hPa NW 10.8 km/h 18.5 km/h 38 % 0 mm
16:47 0.3 °C -12.7 °C 1021.9 hPa NNW 6.4 km/h 9.7 km/h 37 % 0 mm
16:52 0.2 °C -12.8 °C 1021.9 hPa NNW 6.4 km/h 13 km/h 37 % 0 mm
16:57 0.2 °C -13.5 °C 1021.9 hPa NNW 5.8 km/h 14.8 km/h 35 % 0 mm
17:02 0.2 °C -13.5 °C 1022.2 hPa NW 6.3 km/h 14.8 km/h 35 % 0 mm
17:07 0.1 °C -13.9 °C 1021.9 hPa NW 3.5 km/h 9.3 km/h 34 % 0 mm
17:12 0.1 °C -13.6 °C 1022.2 hPa NNW 3.7 km/h 7.4 km/h 35 % 0 mm
17:17 0.1 °C -13.6 °C 1021.9 hPa NNW 8 km/h 9.3 km/h 35 % 0 mm
17:22 0.1 °C -13.3 °C 1022.2 hPa NW 2.1 km/h 3.2 km/h 36 % 0 mm
17:27 0 °C -13 °C 1022.2 hPa NW 4.2 km/h 5.6 km/h 37 % 0 mm
17:32 -0.1 °C -13.4 °C 1022.2 hPa NW 8.7 km/h 13 km/h 36 % 0 mm
17:37 -0.1 °C -13.4 °C 1022.6 hPa NNW 2.4 km/h 5.6 km/h 36 % 0 mm
17:42 -0.1 °C -13.4 °C 1022.6 hPa WNW 6.4 km/h 7.4 km/h 36 % 0 mm
17:48 -0.2 °C -13.1 °C 1022.9 hPa NNW 6 km/h 8 km/h 37 % 0 mm
17:53 -0.2 °C -13.5 °C 1022.9 hPa WNW 2.9 km/h 14.8 km/h 36 % 0 mm
17:58 -0.2 °C -12.8 °C 1023.2 hPa NW 9.5 km/h 16.1 km/h 38 % 0 mm
18:03 -0.2 °C -13.1 °C 1023.2 hPa WNW 5.1 km/h 18.5 km/h 37 % 0 mm
18:08 -0.2 °C -12.8 °C 1023.2 hPa North 10.3 km/h 18.5 km/h 38 % 0 mm
18:13 -0.2 °C -12.5 °C 1023.6 hPa NNW 10 km/h 18.5 km/h 39 % 0 mm
18:18 -0.2 °C -12.5 °C 1023.6 hPa NW 8.2 km/h 16.7 km/h 39 % 0 mm
18:23 -0.2 °C -12.5 °C 1023.9 hPa WNW 12.6 km/h 29.6 km/h 39 % 0 mm
18:28 -0.2 °C -12.2 °C 1023.9 hPa NW 5.1 km/h 14.8 km/h 40 % 0 mm
18:33 -0.2 °C -12.2 °C 1023.9 hPa NW 6.8 km/h 16.1 km/h 40 % 0 mm
18:38 -0.2 °C -12.2 °C 1023.9 hPa NW 7.4 km/h 11.1 km/h 40 % 0 mm
18:43 -0.2 °C -11.9 °C 1024.3 hPa NW 13 km/h 25.9 km/h 41 % 0 mm
18:48 -0.2 °C -12.8 °C 1024.3 hPa WNW 12.9 km/h 24.1 km/h 38 % 0 mm
18:53 -0.2 °C -12.2 °C 1024.3 hPa NW 9.2 km/h 14.8 km/h 40 % 0 mm
18:58 -0.3 °C -12.3 °C 1024.6 hPa WNW 9.7 km/h 18.5 km/h 40 % 0 mm
19:03 -0.3 °C -12.3 °C 1024.6 hPa NNW 10.9 km/h 16.7 km/h 40 % 0 mm
19:08 -0.3 °C -12.6 °C 1024.6 hPa NNW 10.8 km/h 18.5 km/h 39 % 0 mm
19:13 -0.4 °C -12.7 °C 1024.6 hPa North 11.3 km/h 14.8 km/h 39 % 0 mm
19:18 -0.4 °C -12.4 °C 1024.6 hPa WSW 6.1 km/h 18.5 km/h 40 % 0 mm
19:23 -0.4 °C -12.4 °C 1024.9 hPa NW 6.4 km/h 14.8 km/h 40 % 0 mm
19:28 -0.4 °C -13.1 °C 1024.9 hPa NNW 9 km/h 14.8 km/h 38 % 0 mm
19:33 -0.5 °C -12.8 °C 1024.9 hPa NNW 9.3 km/h 14.8 km/h 39 % 0 mm
19:39 -0.6 °C -12.8 °C 1024.9 hPa NW 8 km/h 14.8 km/h 39 % 0 mm
19:44 -0.6 °C -13.2 °C 1025.3 hPa NW 5.1 km/h 7.4 km/h 38 % 0 mm
19:49 -0.7 °C -13.6 °C 1025.3 hPa NW 6.3 km/h 13 km/h 37 % 0 mm
19:54 -0.7 °C -13.3 °C 1025.3 hPa NW 7.1 km/h 16.7 km/h 38 % 0 mm
19:59 -0.7 °C -12.7 °C 1025.3 hPa NW 6.9 km/h 18.5 km/h 40 % 0 mm
20:04 -0.8 °C -13.1 °C 1025.3 hPa NW 5.6 km/h 14.8 km/h 39 % 0 mm
20:09 -0.8 °C -13.1 °C 1024.9 hPa NNW 5.5 km/h 8 km/h 39 % 0 mm
20:14 -0.8 °C -13.1 °C 1025.3 hPa NW 7.2 km/h 11.1 km/h 39 % 0 mm
20:19 -0.9 °C -12.5 °C 1025.3 hPa North 3.4 km/h 9.7 km/h 41 % 0 mm
20:24 -0.9 °C -12.3 °C 1025.6 hPa NNE 5.5 km/h 9.7 km/h 42 % 0 mm
20:29 -1.1 °C -12.7 °C 1026 hPa North 8.4 km/h 11.1 km/h 41 % 0 mm
20:34 -1.2 °C -12.8 °C 1025.6 hPa NNW 10.6 km/h 13 km/h 41 % 0 mm
20:39 -1.2 °C -13.1 °C 1026 hPa NW 9.8 km/h 18.5 km/h 40 % 0 mm
20:44 -1.3 °C -13.2 °C 1026 hPa NNW 10.1 km/h 14.8 km/h 40 % 0 mm
20:49 -1.3 °C -13.2 °C 1026 hPa NNE 9 km/h 14.8 km/h 40 % 0 mm
20:54 -1.4 °C -12.9 °C 1026 hPa NNE 6.4 km/h 12.9 km/h 41 % 0 mm
20:59 -1.4 °C -13.3 °C 1026 hPa NNW 4 km/h 11.1 km/h 40 % 0 mm
21:04 -1.5 °C -13.1 °C 1026 hPa North 5.5 km/h 6.4 km/h 41 % 0 mm
21:09 -1.6 °C -13.1 °C 1026.3 hPa NNW 4.8 km/h 11.1 km/h 41 % 0 mm
21:15 -1.7 °C -12.9 °C 1026.3 hPa NNE 7.6 km/h 14.8 km/h 42 % 0 mm
21:20 -1.7 °C -13.3 °C 1026.3 hPa North 4.5 km/h 9.3 km/h 41 % 0 mm
21:25 -1.8 °C -13.3 °C 1026.3 hPa NNW 3.4 km/h 14.8 km/h 41 % 0 mm
21:30 -1.8 °C -13.3 °C 1026.6 hPa NNE 2.9 km/h 7.4 km/h 41 % 0 mm
21:35 -1.8 °C -13.4 °C 1026.6 hPa NW 5.5 km/h 9.3 km/h 41 % 0 mm
21:40 -1.9 °C -13.4 °C 1026.6 hPa North 1.9 km/h 5.6 km/h 41 % 0 mm
21:45 -1.9 °C -13.2 °C 1026.6 hPa North 0.6 km/h 3.7 km/h 42 % 0 mm
21:50 -2 °C -13.5 °C 1026.6 hPa North 3.4 km/h 8 km/h 41 % 0 mm
21:55 -2 °C -13.5 °C 1026.6 hPa NNW 2.4 km/h 5.6 km/h 41 % 0 mm
22:00 -2.1 °C -13.6 °C 1026.6 hPa North 4 km/h 11.1 km/h 41 % 0 mm
22:05 -2.1 °C -13.9 °C 1026.6 hPa NW 4.5 km/h 9.3 km/h 40 % 0 mm
22:10 -2.1 °C -14.2 °C 1026.6 hPa North 6.6 km/h 13 km/h 39 % 0 mm
22:15 -2.1 °C -14.2 °C 1026.6 hPa North 5.8 km/h 7.4 km/h 39 % 0 mm
22:20 -2.2 °C -13.7 °C 1026.6 hPa North 6.4 km/h 11.1 km/h 41 % 0 mm
22:25 -2.2 °C -13.7 °C 1026.3 hPa NNE 5.8 km/h 9.3 km/h 41 % 0 mm
22:30 -2.2 °C -13.7 °C 1026.3 hPa NNE 4.3 km/h 11.1 km/h 41 % 0 mm
22:36 -2.3 °C -13.8 °C 1026.3 hPa NNE 8 km/h 13 km/h 41 % 0 mm
22:41 -2.3 °C -13.8 °C 1026.3 hPa NNE 4.8 km/h 9.7 km/h 41 % 0 mm
22:46 -2.3 °C -13.8 °C 1026.3 hPa NNE 8 km/h 11.3 km/h 41 % 0 mm
22:51 -2.3 °C -13.8 °C 1026.6 hPa NNE 8 km/h 11.3 km/h 41 % 0 mm
22:56 -2.4 °C -13.8 °C 1027 hPa North 3.2 km/h 8 km/h 41 % 0 mm
23:01 -2.4 °C -14.5 °C 1027 hPa NNW 5.5 km/h 7.4 km/h 39 % 0 mm
23:06 -2.3 °C -14.4 °C 1026.6 hPa NNW 1.8 km/h 5.6 km/h 39 % 0 mm
23:11 -2.3 °C -14.1 °C 1026.6 hPa NNW 2.3 km/h 5.6 km/h 40 % 0 mm
23:16 -2.3 °C -14.1 °C 1027 hPa North 1 km/h 7.4 km/h 40 % 0 mm
23:21 -2.3 °C -13.8 °C 1026.6 hPa North 1.6 km/h 3.7 km/h 41 % 0 mm
23:26 -2.3 °C -14.1 °C 1026.6 hPa North 1.9 km/h 3.7 km/h 40 % 0 mm
23:31 -2.3 °C -14.1 °C 1026.6 hPa North 4 km/h 5.6 km/h 40 % 0 mm
23:36 -2.2 °C -13.7 °C 1026.6 hPa North 0.2 km/h 1.6 km/h 41 % 0 mm
23:41 -2.2 °C -13.7 °C 1027 hPa North 1 km/h 3.7 km/h 41 % 0 mm
23:46 -2.2 °C -14 °C 1027 hPa North 2.1 km/h 5.6 km/h 40 % 0 mm
23:51 -2.2 °C -13.7 °C 1027 hPa North 1.3 km/h 5.6 km/h 41 % 0 mm
23:56 -2.2 °C -13.7 °C 1027 hPa North 5.5 km/h 9.7 km/h 41 % 0 mm
Crab Meadow Weather
Compliments of Weather Underground - 3 mb

Script developed by  Jim McMurry - jmcmurry@mwt.net Adapted for the template by  Wim van der Kuil - Leuven-Template.eu

Extremes: A record low of - 128.6 degrees F was recorded at Vostok, Antarctica.